Time,TemperatureF,DewpointF,PressureIn,WindDirection,WindDirectionDegrees,WindSpeedMPH,WindSpeedGustMPH,Humidity,HourlyPrecipIn,Conditions,Clouds,dailyrainin,SoftwareType,DateUTC
2013-06-16 00:01:00,69.0,62.0,29.95,SW,233,0.0,4.0,78,0.00,,,0.03,,2013-06-16 05:01:00,
2013-06-16 00:11:00,69.0,62.0,29.94,WNW,293,0.0,5.0,79,0.00,,,0.03,,2013-06-16 05:11:00,
2013-06-16 00:22:00,69.0,63.0,29.94,SE,139,0.0,4.0,80,0.00,,,0.03,,2013-06-16 05:22:00,
2013-06-16 00:34:00,69.0,63.0,29.93,WNW,283,0.0,3.0,80,0.00,,,0.03,,2013-06-16 05:34:00,
2013-06-16 00:43:00,69.0,63.0,29.93,NW,323,0.0,1.0,81,0.00,,,0.03,,2013-06-16 05:43:00,
2013-06-16 00:52:00,68.0,62.0,29.92,NW,323,0.0,1.0,81,0.00,,,0.03,,2013-06-16 05:52:00,
2013-06-16 01:01:00,68.0,62.0,29.92,NW,323,0.0,0.0,81,0.00,,,0.03,,2013-06-16 06:01:00,
2013-06-16 01:11:00,68.0,62.0,29.91,NW,323,0.0,0.0,82,0.00,,,0.03,,2013-06-16 06:11:00,
2013-06-16 01:22:00,67.0,61.0,29.91,NW,323,0.0,0.0,82,0.00,,,0.03,,2013-06-16 06:22:00,
2013-06-16 01:33:00,67.0,62.0,29.91,NW,323,0.0,0.0,83,0.00,,,0.03,,2013-06-16 06:33:00,
2013-06-16 01:43:00,67.0,62.0,29.91,NW,323,0.0,0.0,83,0.00,,,0.03,,2013-06-16 06:43:00,
2013-06-16 01:52:00,66.0,61.0,29.91,NW,323,0.0,0.0,84,0.00,,,0.03,,2013-06-16 06:52:00,
2013-06-16 02:01:00,66.0,61.0,29.91,NW,323,0.0,0.0,84,0.00,,,0.03,,2013-06-16 07:01:00,
2013-06-16 02:11:00,66.0,61.0,29.91,SW,225,1.0,4.0,85,0.00,,,0.03,,2013-06-16 07:11:00,
2013-06-16 02:22:00,66.0,62.0,29.91,WNW,294,1.0,4.0,86,0.00,,,0.03,,2013-06-16 07:22:00,
2013-06-16 02:33:00,66.0,61.0,29.90,NW,311,0.0,4.0,84,0.00,,,0.03,,2013-06-16 07:33:00,
2013-06-16 02:43:00,67.0,61.0,29.90,West,277,1.0,4.0,82,0.00,,,0.03,,2013-06-16 07:43:00,
2013-06-16 02:53:00,67.0,61.0,29.90,NW,312,1.0,5.0,80,0.00,,,0.03,,2013-06-16 07:53:00,
2013-06-16 03:02:00,67.0,60.0,29.90,WNW,298,1.0,3.0,79,0.00,,,0.03,,2013-06-16 08:02:00,
2013-06-16 03:11:00,68.0,61.0,29.90,WNW,298,0.0,2.0,78,0.00,,,0.03,,2013-06-16 08:11:00,
2013-06-16 03:22:00,67.0,60.0,29.90,WNW,298,1.0,2.0,78,0.00,,,0.03,,2013-06-16 08:22:00,
2013-06-16 03:33:00,67.0,60.0,29.91,WNW,298,0.0,5.0,78,0.00,,,0.03,,2013-06-16 08:33:00,
2013-06-16 03:43:00,68.0,61.0,29.91,WNW,296,1.0,5.0,78,0.00,,,0.03,,2013-06-16 08:43:00,
2013-06-16 03:54:00,68.0,61.0,29.90,West,265,2.0,7.0,79,0.00,,,0.03,,2013-06-16 08:54:00,
2013-06-16 04:02:00,68.0,61.0,29.90,NW,316,1.0,6.0,79,0.00,,,0.03,,2013-06-16 09:02:00,
2013-06-16 04:11:00,68.0,61.0,29.91,WNW,292,0.0,5.0,79,0.00,,,0.03,,2013-06-16 09:11:00,
2013-06-16 04:22:00,67.0,60.0,29.91,West,279,2.0,4.0,79,0.00,,,0.03,,2013-06-16 09:22:00,
2013-06-16 04:33:00,67.0,61.0,29.91,West,279,1.0,4.0,80,0.00,,,0.03,,2013-06-16 09:33:00,
2013-06-16 04:43:00,67.0,61.0,29.92,WNW,298,1.0,4.0,80,0.00,,,0.03,,2013-06-16 09:43:00,
2013-06-16 04:52:00,67.0,61.0,29.92,WNW,288,1.0,4.0,82,0.00,,,0.03,,2013-06-16 09:52:00,
2013-06-16 05:01:00,67.0,61.0,29.92,WSW,246,0.0,3.0,81,0.00,,,0.03,,2013-06-16 10:01:00,
2013-06-16 05:12:00,67.0,61.0,29.92,WNW,289,1.0,5.0,82,0.00,,,0.02,,2013-06-16 10:12:00,
2013-06-16 05:22:00,66.0,61.0,29.92,WNW,300,1.0,4.0,83,0.00,,,0.02,,2013-06-16 10:22:00,
2013-06-16 05:33:00,66.0,61.0,29.92,WNW,282,0.0,3.0,83,0.00,,,0.02,,2013-06-16 10:33:00,
2013-06-16 05:43:00,66.0,61.0,29.92,WSW,246,0.0,3.0,83,0.00,,,0.02,,2013-06-16 10:43:00,
2013-06-16 05:53:00,66.0,61.0,29.92,WNW,286,2.0,5.0,84,0.00,,,0.02,,2013-06-16 10:53:00,
2013-06-16 06:02:00,67.0,62.0,29.92,NW,318,1.0,5.0,84,0.00,,,0.02,,2013-06-16 11:02:00,
2013-06-16 06:11:00,67.0,62.0,29.92,NW,314,0.0,4.0,84,0.00,,,0.02,,2013-06-16 11:11:00,
2013-06-16 06:22:00,67.0,62.0,29.92,WNW,290,1.0,7.0,84,0.00,,,0.02,,2013-06-16 11:22:00,
2013-06-16 06:34:00,68.0,63.0,29.93,NW,323,3.0,8.0,83,0.00,,,0.02,,2013-06-16 11:34:00,
2013-06-16 06:43:00,68.0,63.0,29.93,North,350,2.0,6.0,83,0.00,,,0.02,,2013-06-16 11:43:00,
2013-06-16 06:52:00,68.0,63.0,29.94,West,279,2.0,6.0,83,0.00,,,0.02,,2013-06-16 11:52:00,
2013-06-16 07:02:00,68.0,62.0,29.94,WNW,300,2.0,6.0,82,0.00,,,0.02,,2013-06-16 12:02:00,
2013-06-16 07:12:00,68.0,62.0,29.94,NW,309,3.0,5.0,82,0.00,,,0.02,,2013-06-16 12:12:00,
2013-06-16 07:22:00,69.0,63.0,29.94,NW,312,1.0,3.0,82,0.00,,,0.02,,2013-06-16 12:22:00,
2013-06-16 07:32:00,69.0,63.0,29.94,WNW,288,2.0,5.0,81,0.00,,,0.02,,2013-06-16 12:32:00,
2013-06-16 07:42:00,69.0,63.0,29.94,West,280,3.0,5.0,82,0.00,,,0.02,,2013-06-16 12:42:00,
2013-06-16 07:53:00,69.0,63.0,29.94,NW,312,1.0,6.0,81,0.00,,,0.02,,2013-06-16 12:53:00,
2013-06-16 08:01:00,69.0,63.0,29.94,WNW,296,1.0,5.0,81,0.00,,,0.02,,2013-06-16 13:01:00,
2013-06-16 08:11:00,70.0,64.0,29.95,West,276,0.0,4.0,81,0.00,,,0.01,,2013-06-16 13:11:00,
2013-06-16 08:22:00,70.0,64.0,29.94,West,279,0.0,4.0,81,0.00,,,0.01,,2013-06-16 13:22:00,
2013-06-16 08:34:00,70.0,64.0,29.95,West,280,0.0,4.0,81,0.00,,,0.01,,2013-06-16 13:34:00,
2013-06-16 08:42:00,70.0,64.0,29.95,NW,311,1.0,5.0,81,0.00,,,0.01,,2013-06-16 13:42:00,
2013-06-16 08:53:00,70.0,64.0,29.95,NW,311,0.0,4.0,81,0.00,,,0.01,,2013-06-16 13:53:00,
2013-06-16 09:02:00,70.0,64.0,29.95,NW,311,2.0,4.0,80,0.00,,,0.01,,2013-06-16 14:02:00,
2013-06-16 09:12:00,70.0,64.0,29.96,NW,311,1.0,3.0,81,0.00,,,0.01,,2013-06-16 14:12:00,
2013-06-16 09:22:00,71.0,65.0,29.96,NW,311,0.0,4.0,81,0.00,,,0.01,,2013-06-16 14:22:00,
2013-06-16 09:34:00,71.0,64.0,29.95,NW,323,2.0,5.0,79,0.00,,,0.01,,2013-06-16 14:34:00,
2013-06-16 09:43:00,72.0,65.0,29.95,WNW,302,1.0,4.0,80,0.00,,,0.01,,2013-06-16 14:43:00,
2013-06-16 09:52:00,72.0,65.0,29.95,WNW,300,1.0,4.0,78,0.00,,,0.01,,2013-06-16 14:52:00,
2013-06-16 10:02:00,72.0,64.0,29.95,North,360,2.0,5.0,77,0.00,,,0.01,,2013-06-16 15:02:00,
2013-06-16 10:12:00,73.0,65.0,29.95,NW,315,1.0,6.0,77,0.00,,,0.01,,2013-06-16 15:12:00,
2013-06-16 10:23:00,73.0,65.0,29.95,NW,326,1.0,3.0,75,0.00,,,0.01,,2013-06-16 15:23:00,
2013-06-16 10:33:00,74.0,66.0,29.94,WNW,294,1.0,5.0,77,0.00,,,0.01,,2013-06-16 15:33:00,
2013-06-16 10:43:00,75.0,67.0,29.94,WNW,294,1.0,6.0,75,0.00,,,0.01,,2013-06-16 15:43:00,
2013-06-16 10:52:00,75.0,65.0,29.94,WNW,292,2.0,5.0,71,0.00,,,0.01,,2013-06-16 15:52:00,
2013-06-16 11:02:00,76.0,65.0,29.94,West,274,2.0,6.0,69,0.00,,,0.01,,2013-06-16 16:02:00,
2013-06-16 11:12:00,77.0,66.0,29.93,WNW,300,1.0,5.0,70,0.00,,,0.01,,2013-06-16 16:12:00,
2013-06-16 11:22:00,77.0,65.0,29.94,NNW,336,2.0,6.0,66,0.00,,,0.01,,2013-06-16 16:22:00,
2013-06-16 11:33:00,77.0,66.0,29.94,WNW,294,1.0,5.0,69,0.00,,,0.01,,2013-06-16 16:33:00,
2013-06-16 11:43:00,78.0,66.0,29.94,West,279,0.0,5.0,67,0.00,,,0.01,,2013-06-16 16:43:00,
2013-06-16 11:53:00,79.0,68.0,29.94,NW,321,0.0,4.0,70,0.00,,,0.01,,2013-06-16 16:53:00,
2013-06-16 12:02:00,79.0,66.0,29.94,WNW,286,2.0,7.0,64,0.00,,,0.01,,2013-06-16 17:02:00,
2013-06-16 12:12:00,79.0,65.0,29.94,NW,321,1.0,5.0,63,0.00,,,0.01,,2013-06-16 17:12:00,
2013-06-16 12:22:00,79.0,66.0,29.94,NW,319,1.0,3.0,64,0.00,,,0.01,,2013-06-16 17:22:00,
2013-06-16 12:34:00,80.0,66.0,29.94,NNW,331,0.0,4.0,62,0.00,,,0.01,,2013-06-16 17:34:00,
2013-06-16 12:43:00,80.0,66.0,29.94,NNW,342,0.0,4.0,62,0.00,,,0.01,,2013-06-16 17:43:00,
2013-06-16 12:53:00,81.0,66.0,29.94,NW,305,2.0,5.0,61,0.00,,,0.01,,2013-06-16 17:53:00,
2013-06-16 13:02:00,81.0,66.0,29.93,NW,309,0.0,2.0,60,0.00,,,0.01,,2013-06-16 18:02:00,
2013-06-16 13:12:00,82.0,66.0,29.93,ENE,63,0.0,4.0,58,0.00,,,0.01,,2013-06-16 18:12:00,
2013-06-16 13:22:00,81.0,66.0,29.94,WNW,286,1.0,4.0,60,0.00,,,0.01,,2013-06-16 18:22:00,
2013-06-16 13:33:00,82.0,67.0,29.93,NNW,346,0.0,2.0,60,0.00,,,0.01,,2013-06-16 18:33:00,
2013-06-16 13:43:00,82.0,63.0,29.94,NNW,333,0.0,4.0,52,0.00,,,0.01,,2013-06-16 18:43:00,
2013-06-16 13:52:00,83.0,63.0,29.93,NW,309,0.0,5.0,51,0.00,,,0.01,,2013-06-16 18:52:00,
2013-06-16 14:01:00,83.0,64.0,29.93,NW,309,0.0,1.0,53,0.00,,,0.01,,2013-06-16 19:01:00,
2013-06-16 14:11:00,83.0,65.0,29.93,NNW,337,2.0,4.0,54,0.00,,,0.01,,2013-06-16 19:11:00,
2013-06-16 14:22:00,83.0,62.0,29.92,NNW,337,0.0,3.0,49,0.00,,,0.01,,2013-06-16 19:22:00,
2013-06-16 14:34:00,84.0,63.0,29.92,NNW,337,0.0,3.0,49,0.00,,,0.01,,2013-06-16 19:34:00,
2013-06-16 14:43:00,84.0,68.0,29.92,West,277,0.0,3.0,59,0.00,,,0.01,,2013-06-16 19:43:00,
2013-06-16 14:53:00,85.0,65.0,29.93,NW,309,0.0,5.0,51,0.00,,,0.01,,2013-06-16 19:53:00,
2013-06-16 15:02:00,86.0,63.0,29.93,WNW,284,2.0,5.0,47,0.00,,,0.01,,2013-06-16 20:02:00,
2013-06-16 15:11:00,85.0,61.0,29.92,WNW,292,0.0,3.0,45,0.00,,,0.00,,2013-06-16 20:11:00,
2013-06-16 15:22:00,86.0,62.0,29.92,NW,310,2.0,4.0,45,0.00,,,0.00,,2013-06-16 20:22:00,
2013-06-16 15:33:00,86.0,64.0,29.92,WNW,295,0.0,7.0,48,0.00,,,0.00,,2013-06-16 20:33:00,
2013-06-16 15:42:00,86.0,63.0,29.92,NW,315,2.0,5.0,46,0.00,,,0.00,,2013-06-16 20:42:00,
2013-06-16 15:53:00,86.0,66.0,29.92,NNW,329,1.0,3.0,52,0.00,,,0.00,,2013-06-16 20:53:00,
2013-06-16 16:01:00,86.0,63.0,29.92,NW,317,2.0,5.0,47,0.00,,,0.00,,2013-06-16 21:01:00,
2013-06-16 16:11:00,86.0,66.0,29.92,NNW,336,2.0,8.0,51,0.00,,,0.00,,2013-06-16 21:11:00,
2013-06-16 16:22:00,86.0,62.0,29.92,SSE,155,2.0,6.0,45,0.00,,,0.00,,2013-06-16 21:22:00,
2013-06-16 16:32:00,87.0,65.0,29.92,NNW,348,0.0,6.0,49,0.00,,,0.00,,2013-06-16 21:32:00,
2013-06-16 16:42:00,87.0,64.0,29.92,WNW,296,3.0,6.0,46,0.00,,,0.00,,2013-06-16 21:42:00,
2013-06-16 16:53:00,87.0,63.0,29.92,NW,319,0.0,6.0,45,0.00,,,0.00,,2013-06-16 21:53:00,
2013-06-16 17:01:00,86.0,64.0,29.91,WNW,298,2.0,6.0,48,0.00,,,0.00,,2013-06-16 22:01:00,
2013-06-16 17:12:00,86.0,63.0,29.91,West,265,2.0,5.0,47,0.00,,,0.00,,2013-06-16 22:12:00,
2013-06-16 17:22:00,86.0,63.0,29.91,NW,306,2.0,6.0,47,0.00,,,0.00,,2013-06-16 22:22:00,
2013-06-16 17:32:00,86.0,62.0,29.91,West,264,3.0,8.0,44,0.00,,,0.00,,2013-06-16 22:32:00,
2013-06-16 17:42:00,86.0,62.0,29.91,West,281,4.0,6.0,44,0.00,,,0.00,,2013-06-16 22:42:00,
2013-06-16 17:52:00,86.0,62.0,29.91,WNW,292,1.0,7.0,45,0.00,,,0.00,,2013-06-16 22:52:00,
2013-06-16 18:01:00,86.0,62.0,29.91,WNW,292,2.0,6.0,45,0.00,,,0.00,,2013-06-16 23:01:00,
2013-06-16 18:11:00,86.0,62.0,29.90,WNW,299,1.0,4.0,45,0.00,,,0.00,,2013-06-16 23:11:00,
2013-06-16 18:22:00,86.0,61.0,29.90,NNW,338,2.0,6.0,43,0.00,,,0.00,,2013-06-16 23:22:00,
2013-06-16 18:32:00,85.0,63.0,29.90,West,281,1.0,4.0,48,0.00,,,0.00,,2013-06-16 23:32:00,
2013-06-16 18:42:00,85.0,61.0,29.90,WNW,296,0.0,4.0,45,0.00,,,0.00,,2013-06-16 23:42:00,
2013-06-16 18:52:00,85.0,61.0,29.89,NW,315,0.0,5.0,44,0.00,,,0.00,,2013-06-16 23:52:00,
2013-06-16 19:02:00,85.0,62.0,29.89,NNW,342,2.0,7.0,46,0.00,,,0.00,,2013-06-17 00:02:00,
2013-06-16 19:11:00,84.0,61.0,29.90,WNW,292,2.0,5.0,46,0.00,,,0.00,,2013-06-17 00:11:00,
2013-06-16 19:22:00,84.0,62.0,29.89,WNW,299,1.0,4.0,47,0.00,,,0.00,,2013-06-17 00:22:00,
2013-06-16 19:32:00,83.0,61.0,29.90,WNW,300,1.0,4.0,47,0.00,,,0.00,,2013-06-17 00:32:00,
2013-06-16 19:43:00,83.0,62.0,29.90,WNW,298,0.0,3.0,50,0.00,,,0.00,,2013-06-17 00:43:00,
2013-06-16 19:52:00,82.0,62.0,29.89,WNW,296,0.0,1.0,51,0.00,,,0.00,,2013-06-17 00:52:00,
2013-06-16 20:02:00,82.0,62.0,29.90,WNW,298,0.0,3.0,51,0.00,,,0.00,,2013-06-17 01:02:00,
2013-06-16 20:12:00,81.0,62.0,29.90,WNW,298,0.0,1.0,53,0.00,,,0.00,,2013-06-17 01:12:00,
2013-06-16 20:22:00,80.0,61.0,29.90,WNW,298,0.0,0.0,53,0.00,,,0.00,,2013-06-17 01:22:00,
2013-06-16 20:32:00,79.0,61.0,29.89,WNW,298,0.0,0.0,55,0.00,,,0.00,,2013-06-17 01:32:00,
2013-06-16 20:43:00,78.0,61.0,29.89,WNW,298,0.0,1.0,56,0.00,,,0.00,,2013-06-17 01:43:00,
2013-06-16 20:53:00,78.0,62.0,29.90,WNW,298,0.0,1.0,58,0.00,,,0.00,,2013-06-17 01:53:00,
2013-06-16 21:02:00,77.0,61.0,29.89,WNW,298,0.0,1.0,58,0.00,,,0.00,,2013-06-17 02:02:00,
2013-06-16 21:12:00,76.0,61.0,29.90,WNW,298,0.0,0.0,60,0.00,,,0.00,,2013-06-17 02:12:00,
2013-06-16 21:22:00,75.0,61.0,29.90,WNW,298,0.0,0.0,62,0.00,,,0.00,,2013-06-17 02:22:00,
2013-06-16 21:34:00,75.0,62.0,29.90,WNW,298,0.0,0.0,64,0.00,,,0.00,,2013-06-17 02:34:00,
2013-06-16 21:43:00,74.0,62.0,29.91,WNW,298,0.0,0.0,66,0.00,,,0.00,,2013-06-17 02:43:00,
2013-06-16 21:53:00,73.0,62.0,29.91,WNW,298,0.0,0.0,68,0.00,,,0.00,,2013-06-17 02:53:00,
2013-06-16 22:02:00,72.0,62.0,29.92,WNW,298,0.0,0.0,70,0.00,,,0.00,,2013-06-17 03:02:00,
2013-06-16 22:12:00,71.0,62.0,29.93,WNW,298,0.0,0.0,74,0.00,,,0.00,,2013-06-17 03:12:00,
2013-06-16 22:22:00,70.0,61.0,29.93,WNW,298,0.0,0.0,74,0.00,,,0.00,,2013-06-17 03:22:00,
2013-06-16 22:33:00,70.0,62.0,29.93,WNW,298,0.0,2.0,75,0.00,,,0.00,,2013-06-17 03:33:00,
2013-06-16 22:44:00,69.0,61.0,29.93,WNW,298,0.0,1.0,76,0.00,,,0.00,,2013-06-17 03:44:00,
2013-06-16 22:53:00,69.0,61.0,29.93,WNW,298,0.0,0.0,76,0.00,,,0.00,,2013-06-17 03:53:00,
2013-06-16 23:02:00,68.0,61.0,29.93,WNW,298,0.0,0.0,77,0.00,,,0.00,,2013-06-17 04:02:00,
2013-06-16 23:12:00,68.0,61.0,29.93,WNW,298,0.0,0.0,78,0.00,,,0.00,,2013-06-17 04:12:00,
2013-06-16 23:22:00,68.0,61.0,29.94,WNW,298,0.0,0.0,79,0.00,,,0.00,,2013-06-17 04:22:00,
2013-06-16 23:34:00,67.0,60.0,29.95,WNW,298,0.0,0.0,79,0.00,,,0.00,,2013-06-17 04:34:00,
2013-06-16 23:43:00,67.0,61.0,29.96,WNW,298,0.0,0.0,81,0.00,,,0.00,,2013-06-17 04:43:00,
2013-06-16 23:53:00,67.0,61.0,29.96,WNW,298,0.0,0.0,81,0.00,,,0.00,,2013-06-17 04:53:00,